Regional Weather Roundup
Issued by NWS

Home | Current Version | Previous Version | Graphics & Text | Print | Product List | Glossary On
Versions: 1 2 3 4 5 6 7 8 9 10 11 12 13 14 15 16 17 18 19 20 21 22 23 24 25 26 27 28 29 30 31 32 33 34 35 36 37 38 39 40 41 42 43 44 45 46 47 48 49 50
599
ASUS43 KOAX 260510
RWRNE

WEATHER ROUNDUP FOR NEBRASKA
NATIONAL WEATHER SERVICE OMAHA NE
1200 AM CDT FRI MAY 26 2017

NOTES: SATELLITE DATA IS BEING USED TO AUGMENT CLOUD COVER ABOVE
       12000 FEET.
       "FAIR" INDICATES FEW OR NO CLOUDS BELOW 12,000 FEET WITH NO
       SIGNIFICANT WEATHER AND/OR OBSTRUCTIONS TO VISIBILITY.

  * THESE STATIONS DO NOT REPORT WEATHER SUCH AS RAIN...SNOW OR FOG.

NEZ001>004-019>022-054>056-260600-
NEBRASKA PANHANDLE

CITY           SKY/WX    TMP DP  RH WIND       PRES   REMARKS
SCOTTSBLUFF    CLOUDY    52  39  61 NW9       29.83R
ALLIANCE       PTCLDY    51  42  71 NW12      29.80R
CHADRON        CLOUDY    50  42  74 VRB3      29.83R
GORDON         CLOUDY    53  41  62 N14G20    29.79R
KIMBALL        CLOUDY    51  48  90 NW7       29.84R
SIDNEY         CLOUDY    50  48  93 NW6       29.81R
$$

NEZ057>060-069>072-079>082-260600-
SOUTHWEST NEBRASKA

CITY           SKY/WX    TMP DP  RH WIND       PRES   REMARKS
NORTH PLATTE   LGT RAIN  61  56  83 NW8       29.74R
IMPERIAL       LGT RAIN  59  52  77 W14       29.77R
LEXINGTON      MOCLDY    64  56  77 N8        29.68R
MCCOOK         CLOUDY    59  54  83 NW12      29.70R
OGALLALA       CLOUDY    59  55  84 N10       29.74R
$$

NEZ005>010-023>029-035>040-094-260600-
NORTH CENTRAL NEBRASKA

CITY           SKY/WX    TMP DP  RH WIND       PRES   REMARKS
VALENTINE      MOCLDY    58  47  66 NW9       29.74R
AINSWORTH      CLOUDY    58  51  76 NW5       29.71S
BROKEN BOW     CLOUDY    61  56  83 NW7       29.70R
O`NEILL        CLOUDY    61  54  75 CALM      29.69R
ORD            CLOUDY    57  53  86 NW8       29.67R
THEDFORD       CLOUDY    60  53  76 CALM      29.74F
$$

NEZ041-046>049-061>064-073>077-083>087-260600-
SOUTH CENTRAL NEBRASKA

CITY           SKY/WX    TMP DP  RH WIND       PRES   REMARKS
GRAND ISLAND   CLOUDY    65  58  78 SE7       29.64F
AURORA         CLOUDY    67  56  67 S6        29.64F
HASTINGS       MOCLDY    66  57  72 SE3       29.63F
HEBRON         LGT RAIN  67  60  77 S8        29.67R
HOLDREGE       CLOUDY    63  58  83 E7        29.62S
KEARNEY *      CLOUDY    63  54  72 N9        29.65F
YORK           CLOUDY    64  57  77 S6        29.66S
$$

NEZ011>018-030>034-042>045-260600-
NORTHEAST NEBRASKA

CITY           SKY/WX    TMP DP  RH WIND       PRES   REMARKS
NORFOLK        MOCLDY    63  52  67 S7        29.65R
ALBION         CLOUDY    58  54  84 N6        29.67S
BLAIR          CLOUDY    68  55  62 SE8       29.66R
FREMONT        CLOUDY    68  55  61 SE8       29.65R
TEKAMAH        CLOUDY    65  55  70 SE9       29.65R
WAYNE          PTCLDY    60  55  82 SW3       29.65R
$$

NEZ050>053-065>068-078-088>093-260600-
SOUTHEAST NEBRASKA

CITY           SKY/WX    TMP DP  RH WIND       PRES   REMARKS
LINCOLN        MOCLDY    68  56  65 S9        29.66R
OMAHA EPPLEY   MOCLDY    67  54  63 S10       29.66R
BEATRICE       CLOUDY    69  57  66 SE7       29.67R
FALLS CITY     CLOUDY    66  56  70 SE7       29.66R
NEBRASKA CITY  CLOUDY    67  51  55 SE8       29.67R
PLATTSMOUTH    CLOUDY    67  56  65 SE9       29.67R
$$

NEZ044-045-051>053-067-260600-
OMAHA AREA

CITY           SKY/WX    TMP DP  RH WIND       PRES   REMARKS
OMAHA EPPLEY   MOCLDY    67  54  63 S10       29.66R
BLAIR          CLOUDY    68  55  62 SE8       29.66R
FREMONT        CLOUDY    68  55  61 SE8       29.65R
MILLARD        CLOUDY    67  57  69 SE3       29.66R
OFFUTT AFB     MOCLDY    65  55  69 E7        29.65R
PLATTSMOUTH    CLOUDY    67  56  65 SE9       29.67R
WAHOO          MOCLDY    65  55  69 SE7       29.65S
$$




USA.gov is the U.S. government's official web portal to all federal, state and local government web resources and services.